User: anonymous   Login
Location: Paderno d�Adda
(45.6667°N, 9.4333°E)
Time: 13:22:18
(UTC+00:00)
Language:

Cosmos 1707 - Orbit

View from above orbital plane
View from above orbital plane
View from above satellite
View from above satellite

Ground track
Ground track

The orbit data is extracted from the following two-line orbital elements,

1 16326U 85113A   20330.77447593 +.00001442 +00000-0 +76810-4 0  9997
2 16326 082.5132 051.7492 0008832 275.6616 084.3609 15.14420244907332
Epoch (UTC): 25 November 2020 18:35:14
Eccentricity: 0.0008832
inclination: 82.5132°
perigee height: 516 km
apogee height: 529 km
right ascension of ascending node: 51.7492°
argument of perigee: 275.6616°
revolutions per day: 15.14420244
mean anomaly at epoch: 84.3609°
orbit number at epoch: 90733

The dashed part of the orbit path shows where the satellite is in the earth's shadow,  

DLR